User: anonymous   Login
Location: Unspecified
(0.0000°N, 0.0000°E)
Time: 11:07:02
(UTC+01:00)
Language:

H-2A R/B - Orbit

View from above orbital plane
View from above orbital plane
View from above satellite
View from above satellite

Ground track
Ground track

The orbit data is extracted from the following two-line orbital elements,

1 28932U 06002B   16044.80602051  .00001536  00000-0  15083-3 0  9994
2 28932  98.2272 301.9747 0092446 113.8035 288.9199 14.90653141544882
Epoch (UTC): 13 February 2016 19:20:40
Eccentricity: 0.0092446
inclination: 98.2272°
perigee height: 531 km
apogee height: 660 km
right ascension of ascending node: 301.9747°
argument of perigee: 113.8035°
revolutions per day: 14.90653141
mean anomaly at epoch: 288.9199°
orbit number at epoch: 54488

The dashed part of the orbit path shows where the satellite is in the earth's shadow,  

DLR